星链-1332 (STARLINK-1332 )

导读

STARLINK-1332是美国SpaceX星链星座中的卫星,于2020年4月22日发射升空。星链计划旨在构建全球卫星互联网星座,为全球偏远地区等提供高速互联网接入服务。该卫星加入后推动星链网络覆盖与服务能力拓展,是星链低轨星座组网部署过程中的组成单元。

基本信息
目录编号:
45579
目录名称:
STARLINK-1332
国际标识:
2020-025BA
轨道中心:
EARTH
卫星名称:
星链-1332
卫星全名:
星链-1332 (STARLINK-1332 )
卫星状态:
已陨落 最后检测时间 2025-05-06
发射日期:
2020-04-22 UTC
国别 :
美国 (US)
星等 :
--
轨道信息
数据来源 国际轨道数据
星历时间: 2025-05-06T05:19:46+0800
轨道信息已过期409天
半长轴: 6533.611km
偏心率: 0.0007765
轨道倾角: 53.018°
近地点辐角 311.276°
升交点赤经 270.857°
平近点角 190.946°
近地点: 150.402km
远地点: 160.55km
周期: 87.597分钟
每日圈数: 16.438907
详细信息
固有亮度:
5
最大亮度:
2.5
卫星平台:
Starlink V1.0
覆盖范围:
全球
运营商:
太空探索技术公司
运营商所在国:
美国
制造商(研发单位):
太空探索技术公司
制造商所在国:
美国
使用方式:
暂无
卫星简介
星链(Starlink)计划是由太空探索技术公司(SpaceX)提出的一个巨型低轨卫星互联网星座项目,计划在2019年至2024年间在太空搭建由约1.2万颗卫星组成的“星链”网络,其中1584颗将部署在地球上空550千米处的近地轨道,并从2020年开始工作。该卫星仍在工作。